FIN260 LIMC-LIRF

Flight info

Callsign FIN260
Flight time N/A
Altitude 35000
Route ROBAS DCT TINKU DCT XIBIL
Aircraft A320/M-SDE3FGHIRWY/LB1

Departure

Time 2026-05-06 09:04
Airport Milan Malpensa International Airport (LIMC)

Arrival

Time N/A
Airport Rome–Fiumicino Leonardo da Vinci International Airport (LIRF)
Time Latitude Longitude Altitude Speed Heading
2026-05-06 08:43 45.62597 8.71951 732 ft 0 kts 78°
2026-05-06 08:52 45.62598 8.71954 732 ft 0 kts 78°
2026-05-06 08:52 45.62600 8.71972 732 ft 2 kts 78°
2026-05-06 08:52 45.62605 8.72008 731 ft 4 kts 81°
2026-05-06 08:53 45.62585 8.72045 731 ft 4 kts 153°
2026-05-06 08:53 45.62582 8.72048 731 ft 0 kts 153°
2026-05-06 08:53 45.62577 8.72050 731 ft 2 kts 161°
2026-05-06 08:53 45.62577 8.72051 731 ft 0 kts 163°
2026-05-06 08:55 45.62569 8.72054 730 ft 2 kts 162°
2026-05-06 08:55 45.62535 8.72065 730 ft 7 kts 169°
2026-05-06 08:55 45.62473 8.72084 728 ft 11 kts 168°
2026-05-06 08:55 45.62386 8.72091 727 ft 13 kts 204°
2026-05-06 08:56 45.62349 8.71973 727 ft 9 kts 255°
2026-05-06 08:56 45.62322 8.71933 727 ft 6 kts 198°
2026-05-06 08:56 45.62271 8.71936 727 ft 8 kts 169°
2026-05-06 08:56 45.62191 8.71959 725 ft 14 kts 168°
2026-05-06 08:57 45.62074 8.71992 722 ft 19 kts 169°
2026-05-06 08:57 45.61937 8.72029 719 ft 21 kts 169°
2026-05-06 08:57 45.61789 8.72072 716 ft 22 kts 168°
2026-05-06 08:57 45.61630 8.72115 711 ft 24 kts 170°
2026-05-06 08:58 45.61459 8.72163 707 ft 25 kts 169°
2026-05-06 08:58 45.61284 8.72206 703 ft 26 kts 168°
2026-05-06 08:58 45.61114 8.72256 699 ft 25 kts 169°
2026-05-06 08:58 45.60945 8.72303 696 ft 22 kts 169°
2026-05-06 08:59 45.60788 8.72347 694 ft 19 kts 169°
2026-05-06 08:59 45.60676 8.72398 692 ft 15 kts 135°
2026-05-06 08:59 45.60636 8.72544 691 ft 17 kts 97°
2026-05-06 08:59 45.60621 8.72724 691 ft 19 kts 97°
2026-05-06 09:00 45.60607 8.72921 690 ft 20 kts 97°
2026-05-06 09:00 45.60590 8.73128 690 ft 21 kts 93°
2026-05-06 09:00 45.60663 8.73291 690 ft 20 kts 27°
2026-05-06 09:00 45.60793 8.73371 691 ft 20 kts 24°
2026-05-06 09:01 45.60925 8.73404 692 ft 19 kts 353°
2026-05-06 09:01 45.61055 8.73368 694 ft 18 kts 349°
2026-05-06 09:01 45.61187 8.73328 695 ft 19 kts 349°
2026-05-06 09:01 45.61322 8.73296 697 ft 19 kts 351°
2026-05-06 09:02 45.61460 8.73258 699 ft 20 kts 349°
2026-05-06 09:02 45.61589 8.73239 702 ft 16 kts 28°
2026-05-06 09:02 45.61635 8.73386 702 ft 17 kts 86°
2026-05-06 09:02 45.61594 8.73548 700 ft 18 kts 104°
2026-05-06 09:03 45.61620 8.73710 699 ft 16 kts 29°
2026-05-06 09:03 45.61729 8.73706 701 ft 15 kts 352°
2026-05-06 09:03 45.62014 8.73633 707 ft 75 kts 349°
2026-05-06 09:03 45.62753 8.73425 725 ft 136 kts 350°
2026-05-06 09:04 45.63826 8.73130 874 ft 170 kts 351°
2026-05-06 09:04 45.64988 8.72826 1414 ft 172 kts 358°
2026-05-06 09:04 45.66178 8.72777 2043 ft 173 kts
2026-05-06 09:04 45.67392 8.72752 2569 ft 182 kts
2026-05-06 09:05 45.68721 8.72712 2964 ft 201 kts 359°
2026-05-06 09:05 45.70174 8.72648 3363 ft 221 kts 359°
2026-05-06 09:05 45.71750 8.72419 3828 ft 235 kts 341°
2026-05-06 09:05 45.73094 8.71070 4352 ft 242 kts 303°
2026-05-06 09:06 45.73638 8.68865 4994 ft 240 kts 268°
2026-05-06 09:06 45.73278 8.66579 5652 ft 237 kts 245°
2026-05-06 09:06 45.72649 8.64400 6304 ft 241 kts 245°
2026-05-06 09:06 45.72033 8.62195 6974 ft 244 kts 244°
2026-05-06 09:07 45.71324 8.59990 7680 ft 244 kts 238°
2026-05-06 09:07 45.70443 8.57906 8179 ft 253 kts 227°
2026-05-06 09:07 45.69005 8.56450 8508 ft 262 kts 193°
2026-05-06 09:07 45.67194 8.56479 9049 ft 268 kts 162°
2026-05-06 09:08 45.65603 8.57827 9799 ft 271 kts 143°
2026-05-06 09:08 45.64132 8.59533 10449 ft 278 kts 144°
2026-05-06 09:08 45.62563 8.61251 10862 ft 292 kts 145°
2026-05-06 09:08 45.60945 8.63001 11516 ft 297 kts 146°
2026-05-06 09:09 45.59283 8.64795 12200 ft 301 kts 146°
2026-05-06 09:09 45.57630 8.66580 12832 ft 306 kts 146°
2026-05-06 09:09 45.55926 8.68413 13385 ft 312 kts 147°
2026-05-06 09:09 45.54126 8.70341 13639 ft 329 kts 147°
2026-05-06 09:10 45.52261 8.72330 13867 ft 345 kts 146°
2026-05-06 09:10 45.50291 8.74441 14105 ft 359 kts 146°
2026-05-06 09:10 45.48284 8.76587 14353 ft 371 kts 147°
2026-05-06 09:10 45.46193 8.78830 14601 ft 383 kts 147°
2026-05-06 09:11 45.44025 8.81148 14855 ft 392 kts 146°
2026-05-06 09:11 45.41812 8.83511 15108 ft 399 kts 146°
2026-05-06 09:11 45.39611 8.85864 15376 ft 401 kts 146°
2026-05-06 09:11 45.37383 8.88248 15798 ft 403 kts 146°
2026-05-06 09:12 45.35132 8.90653 16220 ft 405 kts 147°
2026-05-06 09:12 45.32874 8.93057 16639 ft 407 kts 147°
2026-05-06 09:12 45.30615 8.95459 17068 ft 409 kts 147°
2026-05-06 09:12 45.28332 8.97886 17459 ft 411 kts 147°
2026-05-06 09:13 45.26060 9.00296 17867 ft 411 kts 147°
2026-05-06 09:13 45.23756 9.02738 18286 ft 412 kts 147°
2026-05-06 09:13 45.21489 9.05144 18707 ft 413 kts 147°
2026-05-06 09:13 45.19174 9.07596 19128 ft 413 kts 147°
2026-05-06 09:14 45.16866 9.10038 19564 ft 414 kts 148°
2026-05-06 09:14 45.14590 9.12444 19985 ft 414 kts 148°
2026-05-06 09:14 45.12268 9.14897 20415 ft 415 kts 148°
2026-05-06 09:14 45.09940 9.17350 20841 ft 415 kts 149°
2026-05-06 09:15 45.07652 9.19759 21264 ft 416 kts 149°
2026-05-06 09:15 45.05344 9.22185 21688 ft 416 kts 149°
2026-05-06 09:15 45.03019 9.24629 22109 ft 416 kts 149°
2026-05-06 09:15 45.00691 9.27073 22540 ft 416 kts 150°
2026-05-06 09:16 44.98388 9.29487 22959 ft 416 kts 150°
2026-05-06 09:16 44.96047 9.31939 23380 ft 416 kts 150°
2026-05-06 09:16 44.93724 9.34367 23739 ft 418 kts 150°
2026-05-06 09:16 44.91412 9.36781 24097 ft 419 kts 150°
2026-05-06 09:17 44.89044 9.39249 24464 ft 421 kts 150°
2026-05-06 09:17 44.86708 9.41685 24824 ft 422 kts 150°
2026-05-06 09:17 44.84343 9.44150 25188 ft 424 kts 151°
2026-05-06 09:17 44.81972 9.46615 25548 ft 425 kts 151°
2026-05-06 09:18 44.79593 9.49090 25910 ft 426 kts 151°
2026-05-06 09:18 44.77228 9.51544 26273 ft 426 kts 151°
2026-05-06 09:18 44.74824 9.54040 26647 ft 427 kts 151°
2026-05-06 09:18 44.72458 9.56496 27013 ft 427 kts 151°
2026-05-06 09:19 44.70084 9.58954 27372 ft 427 kts 152°
2026-05-06 09:19 44.67678 9.61442 27739 ft 427 kts 151°
2026-05-06 09:19 44.65331 9.63871 28092 ft 418 kts 152°
2026-05-06 09:19 44.63058 9.66238 28455 ft 399 kts 153°
2026-05-06 09:20 44.60808 9.68563 28823 ft 397 kts 153°
2026-05-06 09:20 44.58585 9.70847 29182 ft 397 kts 153°
2026-05-06 09:20 44.56369 9.73122 29553 ft 397 kts 153°
2026-05-06 09:20 44.54143 9.75405 29916 ft 396 kts 153°
2026-05-06 09:21 44.51936 9.77668 30283 ft 396 kts 153°
2026-05-06 09:21 44.49717 9.79941 30660 ft 395 kts 153°
2026-05-06 09:21 44.47501 9.82208 31032 ft 394 kts 154°
2026-05-06 09:21 44.45286 9.84475 31404 ft 393 kts 153°
2026-05-06 09:22 44.43088 9.86722 31780 ft 392 kts 153°
2026-05-06 09:22 44.40893 9.88967 32163 ft 390 kts 153°
2026-05-06 09:22 44.38708 9.91198 32545 ft 388 kts 153°
2026-05-06 09:22 44.36523 9.93290 32911 ft 380 kts 160°
2026-05-06 09:23 44.34204 9.94975 33297 ft 373 kts 163°
2026-05-06 09:23 44.31878 9.96557 33682 ft 370 kts 163°
2026-05-06 09:23 44.29600 9.98102 34058 ft 367 kts 163°
2026-05-06 09:23 44.27310 9.99661 34440 ft 364 kts 163°
2026-05-06 09:24 44.25024 10.01218 34612 ft 367 kts 163°
2026-05-06 09:24 44.20553 10.04262 34793 ft 375 kts 163°